Regional Weather Roundup
Issued by NWS

Home | Current Version | Previous Version | Graphics & Text | Print | Product List | Glossary On
Versions: 1 2 3 4 5 6 7 8 9 10 11 12 13 14 15 16 17 18 19 20 21 22 23 24 25 26 27 28 29 30 31 32 33 34 35 36 37 38 39 40 41 42 43 44 45 46 47 48 49 50
582
ASUS45 KTFX 280110
RWRMT
MONTANA REGIONAL WEATHER ROUNDUP
NATIONAL WEATHER SERVICE GREAT FALLS MT
600 PM MST MON FEB 27 2017

NOTE: "FAIR" INDICATES FEW OR NO CLOUDS BELOW 12000 FEET WITH NO
SIGNIFICANT WEATHER AND/OR OBSTRUCTIONS TO VISIBILITY.

MTZ001>007-043-280200-
WEST OF THE DIVIDE

CITY           SKY/WX    TMP DP  RH WIND       PRES   REMARKS
KALISPELL      FLURRIES  23  19  85 W5        29.58S
MISSOULA       CLOUDY    30  24  78 S12       29.61R WCI  20
BUTTE          CLOUDY    26   9  48 W9        29.53R WCI  17
MULLAN PASS    LGT SNOW  16  14  92 SW8       29.46R VSB 3/4 WCI   5
ANACONDA         N/A     25  18  74 CALM      29.56R
DEER LODGE       N/A     23  19  86 CALM      29.58S
EUREKA           N/A     23  19  86 CALM      29.56F
HAMILTON         N/A     32  12  43 CALM      29.60R
LIBBY            N/A     27  25  93 CALM      29.58R
PLAINS           N/A     28  22  78 SE2       29.64
RONAN            N/A     26  22  85 CALM      29.66S
$$

MTZ008-052>055-280200-
SOUTHWEST MONTANA

CITY           SKY/WX    TMP DP  RH WIND       PRES   REMARKS
BOZEMAN        CLOUDY    32  13  45 W7        29.55R WCI  26
DILLON         CLEAR     25  10  53 SW12      29.55R WCI  14
W YELLOWSTONE  CLOUDY    18  14  86 SW16      29.55R FOG     WCI   3
ENNIS          PTCLDY    27  10  50 SW7       29.60R WCI  19
THREE FORKS      N/A     29 -48   2 NE6       29.62R WCI  23
TWIN BRIDGES     N/A     30  10  43 W3        29.60R
$$

MTZ009-010-012-014-046-048-049-054-280200-
EAST SLOPES AND CENTRAL MONTANA

CITY           SKY/WX    TMP DP  RH WIND       PRES   REMARKS
CUT BANK       MOCLDY    18  12  77 S7        29.52S WCI   9
GREAT FALLS    CLOUDY    18  11  74 E7        29.55S WCI   9
MALMSTROM AFB  CLOUDY    17  13  86 S5        29.57S
HELENA         CLOUDY    24  17  74 SE3       29.58R
AUGUSTA          N/A     18  15  86 NE6       29.51R WCI  10
BOWMANS CRNR     N/A     20  15  80 S7        29.51R WCI  11
CHOTEAU          N/A     19  16  86 SE5       29.55S
CONRAD           N/A     18  12  77 SE2       29.61S
POWER            N/A     18  13  81 SE9       29.54S WCI   6
RAYNESFORD       N/A     16  10  77 E9        29.56R WCI   4
ULM              N/A     20  15  81 MISG      29.56R
$$

MTZ011-013-016-021-045-047-050-051-280200-
NORTH CENTRAL MONTANA

CITY           SKY/WX    TMP DP  RH WIND       PRES   REMARKS
HAVRE          CLEAR     22  12  65 N3        29.63S
LEWISTOWN      CLOUDY    17  11  77 E6        29.56R WCI   9
N BAR RANCH      N/A     12   9  85 CALM      29.59S
CHINOOK          N/A     21  12  68 E9        29.66S WCI  11
DENTON           N/A     16  13  86 E10G18    29.56R WCI   4
FORT BENTON      N/A     25  16  68 MISG      29.61S
GEYSER         MOCLDY    16  12  84 SW3       29.56R
GRASS RANGE    MOCLDY    15  10  80 W3        29.56S
JUDITH GAP     MOCLDY    12   9  87 S7        29.57R WCI   1
ROY              N/A     17  14  88 MISG      29.59R
STANFORD         N/A     19  15  86 CALM      29.55R
WINIFRED         N/A     12  10  91 E9        29.58R WCI   0
$$

MTZ017>020-022>027-061-062-280200-
NORTHEAST MONTANA

CITY           SKY/WX    TMP DP  RH WIND       PRES   REMARKS
GLASGOW        PTCLDY    14   8  77 E9        29.75R WCI   2
JORDAN           N/A     19  13  77 SE5       29.71R
SIDNEY         FLURRIES  15  11  83 NE7       29.82R WCI   5
WOLF POINT     CLEAR     13   6  74 E10       29.80S WCI   0
PLENTYWOOD       N/A     10   1  67 E5        29.81R
POPLAR           N/A     10   3  72 E7        29.81S WCI   0
SCOBEY           N/A      9  -3  58 CALM      29.77R
$$

MTZ028>42-056>058-280200-
SOUTHCENTRAL AND SOUTHEAST MONTANA

CITY           SKY/WX    TMP DP  RH WIND       PRES   REMARKS
BAKER          CLOUDY    21  17  84 E13       29.71R WCI   9
BILLINGS       CLOUDY    27  17  66 N8        29.62R WCI  19
LIVINGSTON     CLOUDY    25  20  81 NE10      29.53S WCI  15
MILES CITY     CLOUDY    24  16  71 NE9       29.71R WCI  14
BIG TIMBER     MOCLDY    25  21  86 CALM      29.58S
FORSYTH          N/A     27  19  74 E7        29.67F WCI  19
HARLOWTON        N/A     17  14  85 N3        29.59R
LAUREL           N/A     27  13  55 N7        29.63R WCI  20
$$

REGIONAL REPORTS...DAKOTAS

CITY           SKY/WX    TMP DP  RH WIND       PRES   REMARKS
WILLISTON      CLEAR     13   7  77 E3        29.84R
MINOT          CLOUDY    10   5  80 N6        29.86R WCI   0
DICKINSON      CLOUDY    16  12  84 E10       29.74R WCI   4
BEACH            N/A    N/A N/A N/A MISG        N/A
CROSBY           N/A      7   3  85 E6        29.86S WCI  -3
TIOGA            N/A      5   5 100 SE7       29.83S WCI  -7
WATFORD CITY     N/A      9   5  85 SE3       29.83R
BISMARCK       CLOUDY    21  16  81 NE10      29.83R WCI  10
GRAND FORKS    CLOUDY    20  10  65 N16       29.91S WCI   6
FARGO          CLOUDY    29  22  75 N14       29.83R WCI  18
BUFFALO SD       N/A     27  19  72 E15       29.62R WCI  15
RAPID CITY     CLOUDY    34  17  50 NE8       29.62R WCI  27
$$

REGIONAL REPORTS...WYOMING/IDAHO/WASHINGTON

CITY           SKY/WX    TMP DP  RH WIND       PRES   REMARKS
GILLETTE       CLOUDY    30  14  51 NE3       29.59R
SHERIDAN       CLOUDY    27  18  69 SE14      29.60R WCI  16
BUFFALO WY     CLOUDY    28  11  48 CALM      29.57R
CODY           CLOUDY    30  17  58 SW10      29.53R WCI  21
YELLOWSTONE LA   N/A     14  10  84 VRB6      29.52R WCI   5
IDAHO FALLS    CLOUDY    23  18  81 SW22      29.70R WCI   8
SALMON         MOCLDY    28  21  74 N10       29.62R WCI  19
BOISE          MOCLDY    31  28  89 E13       29.78S WCI  21
SPOKANE        CLOUDY    30  25  81 SW7       29.62S WCI  23
$$

REGIONAL REPORTS...ALBERTA

CITY           SKY/WX    TMP DP  RH WIND       PRES   REMARKS
EDMONTON       PTCLDY    14   1  57 SE5       29.63R
CALGARY        CLOUDY    14   3  62 E5        29.55R
LETHBRIDGE     CLOUDY    19  12  73 NW8       29.55R WCI   9
MEDICINE HAT   FLURRIES  19  10  68 E8        29.64S WCI   9
WATERTON GATE    N/A     23  16  74 SW6         N/A  WCI  16
CARDSTON         N/A     21   9  58 S2          N/A
MILK RIVER       N/A     16  12  86 S8          N/A  WCI   5
ONEFOUR          N/A     18  14  86 SE10        N/A  WCI   6
$$

REGIONAL REPORTS...SASKATCHEWAN

CITY           SKY/WX    TMP DP  RH WIND       PRES   REMARKS
SWIFT CURRENT  PTCLDY    10   3  72 SE9       29.68S WCI  -2
REGINA         PTCLDY     7  -2  66 SE10      29.83R WCI  -8
SASKATOON      PTCLDY    12   0  57 SW7       29.79R WCI   2
CYPRESS HILLS    N/A     12   9  85 S10         N/A  WCI  -1
VAL MARIE        N/A     18  12  79 S10         N/A  WCI   6
ROCKGLEN         N/A      7   3  85 SE7         N/A  WCI  -5
ASSINIBOIA       N/A     16   5  62 S5          N/A
$$




USA.gov is the U.S. government's official web portal to all federal, state and local government web resources and services.